Year,Month,Day,Hour,Minute,Value (Times are PST for windgust in km/hr)
2010,11,17,00,00,3.20
2010,11,17,00,01,1.60
2010,11,17,00,03,1.60
2010,11,17,00,05,3.20
2010,11,17,00,06,1.60
2010,11,17,00,07,1.60
2010,11,17,00,08,8.10
2010,11,17,00,09,4.80
2010,11,17,00,10,1.60
2010,11,17,00,13,3.20
2010,11,17,00,14,4.80
2010,11,17,00,15,1.60
2010,11,17,00,16,3.20
2010,11,17,00,17,6.40
2010,11,17,00,18,8.10
2010,11,17,00,19,3.20
2010,11,17,00,21,3.20
2010,11,17,00,22,6.40
2010,11,17,00,23,4.80
2010,11,17,00,24,6.40
2010,11,17,00,25,6.40
2010,11,17,00,26,3.20
2010,11,17,00,27,3.20
2010,11,17,00,28,4.80
2010,11,17,00,29,1.60
2010,11,17,00,30,4.80
2010,11,17,00,31,4.80
2010,11,17,00,32,8.10
2010,11,17,00,33,6.40
2010,11,17,00,34,4.80
2010,11,17,00,35,6.40
2010,11,17,00,36,8.10
2010,11,17,00,37,9.60
2010,11,17,00,38,8.10
2010,11,17,00,39,6.40
2010,11,17,00,40,6.40
2010,11,17,00,41,9.60
2010,11,17,00,42,8.10
2010,11,17,00,43,3.20
2010,11,17,00,44,4.80
2010,11,17,00,45,8.10
2010,11,17,00,46,4.80
2010,11,17,00,47,6.40
2010,11,17,00,48,4.80
2010,11,17,00,49,9.60
2010,11,17,00,50,8.10
2010,11,17,00,51,6.40
2010,11,17,00,52,8.10
2010,11,17,00,53,8.10
2010,11,17,00,54,11.30
2010,11,17,00,55,9.60
2010,11,17,00,56,4.80
2010,11,17,00,57,6.40
2010,11,17,00,58,6.40
2010,11,17,00,59,8.10
2010,11,17,01,00,9.60
2010,11,17,01,01,4.80
2010,11,17,01,02,6.40
2010,11,17,01,03,14.50
2010,11,17,01,04,6.40
2010,11,17,01,05,8.10
2010,11,17,01,06,3.20
2010,11,17,01,07,4.80
2010,11,17,01,08,11.30
2010,11,17,01,09,9.60
2010,11,17,01,10,9.60
2010,11,17,01,11,3.20
2010,11,17,01,12,6.40
2010,11,17,01,13,1.60
2010,11,17,01,16,1.60
2010,11,17,01,17,1.60
2010,11,17,01,19,3.20
2010,11,17,01,20,1.60
2010,11,17,01,25,1.60
2010,11,17,01,26,1.60
2010,11,17,01,27,3.20
2010,11,17,01,28,4.80
2010,11,17,01,29,1.60
2010,11,17,01,31,6.40
2010,11,17,01,32,4.80
2010,11,17,01,33,4.80
2010,11,17,01,34,4.80
2010,11,17,01,35,4.80
2010,11,17,01,36,3.20
2010,11,17,01,37,3.20
2010,11,17,01,38,3.20
2010,11,17,01,39,1.60
2010,11,17,01,50,1.60
2010,11,17,02,40,3.20
2010,11,17,02,41,4.80
2010,11,17,02,42,3.20
2010,11,17,02,43,3.20
2010,11,17,02,44,3.20
2010,11,17,02,46,1.60
2010,11,17,02,48,1.60
2010,11,17,02,52,3.20
2010,11,17,02,54,1.60
2010,11,17,02,55,4.80
2010,11,17,02,56,4.80
2010,11,17,02,57,3.20
2010,11,17,02,58,3.20
2010,11,17,02,59,1.60
2010,11,17,03,00,1.60
2010,11,17,03,01,4.80
2010,11,17,03,02,3.20
2010,11,17,03,03,3.20
2010,11,17,03,04,1.60
2010,11,17,03,05,4.80
2010,11,17,03,06,3.20
2010,11,17,03,07,3.20
2010,11,17,03,08,3.20
2010,11,17,03,28,1.60
2010,11,17,03,30,1.60
2010,11,17,03,31,1.60
2010,11,17,03,32,1.60
2010,11,17,03,34,1.60
2010,11,17,03,38,1.60
2010,11,17,03,45,1.60
2010,11,17,03,46,3.20
2010,11,17,03,47,3.20
2010,11,17,03,48,4.80
2010,11,17,03,49,4.80
2010,11,17,03,50,6.40
2010,11,17,03,51,8.10
2010,11,17,03,52,3.20
2010,11,17,03,53,3.20
2010,11,17,03,54,3.20
2010,11,17,03,55,4.80
2010,11,17,03,56,6.40
2010,11,17,03,57,1.60
2010,11,17,03,59,1.60
2010,11,17,04,00,6.40
2010,11,17,04,01,4.80
2010,11,17,04,02,4.80
2010,11,17,04,03,6.40
2010,11,17,04,04,4.80
2010,11,17,04,05,8.10
2010,11,17,04,06,8.10
2010,11,17,04,07,8.10
2010,11,17,04,08,8.10
2010,11,17,04,09,8.10
2010,11,17,04,10,8.10
2010,11,17,04,11,9.60
2010,11,17,04,12,6.40
2010,11,17,04,13,6.40
2010,11,17,04,14,6.40
2010,11,17,04,15,6.40
2010,11,17,04,16,4.80
2010,11,17,04,17,4.80
2010,11,17,04,18,6.40
2010,11,17,04,19,4.80
2010,11,17,04,20,6.40
2010,11,17,04,21,3.20
2010,11,17,04,22,3.20
2010,11,17,04,23,4.80
2010,11,17,04,24,6.40
2010,11,17,04,25,6.40
2010,11,17,04,26,4.80
2010,11,17,04,27,6.40
2010,11,17,04,28,6.40
2010,11,17,04,29,4.80
2010,11,17,04,30,6.40
2010,11,17,04,31,4.80
2010,11,17,04,32,6.40
2010,11,17,04,33,6.40
2010,11,17,04,34,6.40
2010,11,17,04,35,6.40
2010,11,17,04,36,8.10
2010,11,17,04,37,6.40
2010,11,17,04,38,4.80
2010,11,17,04,39,6.40
2010,11,17,04,40,8.10
2010,11,17,04,41,6.40
2010,11,17,04,42,6.40
2010,11,17,04,43,4.80
2010,11,17,04,44,4.80
2010,11,17,04,45,8.10
2010,11,17,04,46,8.10
2010,11,17,04,47,8.10
2010,11,17,04,48,8.10
2010,11,17,04,49,8.10
2010,11,17,04,50,6.40
2010,11,17,04,51,4.80
2010,11,17,04,52,6.40
2010,11,17,04,53,8.10
2010,11,17,04,54,8.10
2010,11,17,04,55,6.40
2010,11,17,04,56,6.40
2010,11,17,04,57,4.80
2010,11,17,05,00,3.20
2010,11,17,05,01,6.40
2010,11,17,05,02,8.10
2010,11,17,05,03,4.80
2010,11,17,05,04,3.20
2010,11,17,05,05,3.20
2010,11,17,05,06,4.80
2010,11,17,05,07,8.10
2010,11,17,05,08,9.60
2010,11,17,05,09,8.10
2010,11,17,05,10,6.40
2010,11,17,05,11,8.10
2010,11,17,05,12,4.80
2010,11,17,05,13,3.20
2010,11,17,05,14,6.40
2010,11,17,05,15,4.80
2010,11,17,05,16,6.40
2010,11,17,05,17,6.40
2010,11,17,05,18,9.60
2010,11,17,05,19,8.10
2010,11,17,05,20,8.10
2010,11,17,05,21,4.80
2010,11,17,05,22,6.40
2010,11,17,05,23,6.40
2010,11,17,05,24,6.40
2010,11,17,05,25,8.10
2010,11,17,05,26,4.80
2010,11,17,05,27,6.40
2010,11,17,05,28,8.10
2010,11,17,05,29,8.10
2010,11,17,05,30,8.10
2010,11,17,05,31,6.40
2010,11,17,05,32,3.20
2010,11,17,05,33,3.20
2010,11,17,05,34,4.80
2010,11,17,05,35,6.40
2010,11,17,05,36,6.40
2010,11,17,05,37,6.40
2010,11,17,05,38,6.40
2010,11,17,05,39,6.40
2010,11,17,05,40,4.80
2010,11,17,05,41,6.40
2010,11,17,05,42,6.40
2010,11,17,05,43,8.10
2010,11,17,05,44,8.10
2010,11,17,05,45,8.10
2010,11,17,05,46,8.10
2010,11,17,05,47,9.60
2010,11,17,05,48,8.10
2010,11,17,05,49,8.10
2010,11,17,05,50,8.10
2010,11,17,05,51,6.40
2010,11,17,05,52,6.40
2010,11,17,05,53,4.80
2010,11,17,05,54,6.40
2010,11,17,05,55,4.80
2010,11,17,05,56,3.20
2010,11,17,05,57,4.80
2010,11,17,05,58,6.40
2010,11,17,05,59,6.40
2010,11,17,06,00,6.40
2010,11,17,06,01,8.10
2010,11,17,06,02,4.80
2010,11,17,06,03,8.10
2010,11,17,06,04,6.40
2010,11,17,06,05,8.10
2010,11,17,06,06,6.40
2010,11,17,06,07,9.60
2010,11,17,06,08,4.80
2010,11,17,06,09,4.80
2010,11,17,06,10,3.20
2010,11,17,06,11,3.20
2010,11,17,06,12,4.80
2010,11,17,06,13,4.80
2010,11,17,06,14,4.80
2010,11,17,06,15,4.80
2010,11,17,06,16,4.80
2010,11,17,06,17,3.20
2010,11,17,06,18,3.20
2010,11,17,06,19,1.60
2010,11,17,06,20,3.20
2010,11,17,06,21,4.80
2010,11,17,06,22,4.80
2010,11,17,06,23,4.80
2010,11,17,06,24,4.80
2010,11,17,06,25,3.20
2010,11,17,06,26,4.80
2010,11,17,06,27,4.80
2010,11,17,06,28,4.80
2010,11,17,06,29,1.60
2010,11,17,06,31,3.20
2010,11,17,06,32,3.20
2010,11,17,06,33,4.80
2010,11,17,06,34,6.40
2010,11,17,06,35,6.40
2010,11,17,06,36,6.40
2010,11,17,06,37,4.80
2010,11,17,06,38,1.60
2010,11,17,06,39,3.20
2010,11,17,06,40,1.60
2010,11,17,06,41,1.60
2010,11,17,06,44,3.20
2010,11,17,06,45,6.40
2010,11,17,06,46,6.40
2010,11,17,06,47,4.80
2010,11,17,06,50,3.20
2010,11,17,06,51,4.80
2010,11,17,06,52,4.80
2010,11,17,06,53,4.80
2010,11,17,06,54,4.80
2010,11,17,06,55,3.20
2010,11,17,07,14,1.60
2010,11,17,07,30,1.60
2010,11,17,07,42,4.80
2010,11,17,07,43,3.20
2010,11,17,07,44,4.80
2010,11,17,07,45,1.60
2010,11,17,07,46,4.80
2010,11,17,07,47,3.20
2010,11,17,07,48,6.40
2010,11,17,07,49,3.20
2010,11,17,07,50,1.60
2010,11,17,07,51,1.60
2010,11,17,07,52,6.40
2010,11,17,07,53,4.80
2010,11,17,07,54,3.20
2010,11,17,07,55,4.80
2010,11,17,07,56,4.80
2010,11,17,07,57,6.40
2010,11,17,07,58,4.80
2010,11,17,07,59,6.40
2010,11,17,08,00,4.80
2010,11,17,08,01,1.60
2010,11,17,08,02,4.80
2010,11,17,08,03,4.80
2010,11,17,08,04,4.80
2010,11,17,08,05,4.80
2010,11,17,08,06,3.20
2010,11,17,08,07,6.40
2010,11,17,08,08,1.60
2010,11,17,08,09,4.80
2010,11,17,08,12,1.60
2010,11,17,08,13,4.80
2010,11,17,08,14,1.60
2010,11,17,08,15,4.80
2010,11,17,08,16,4.80
2010,11,17,08,17,3.20
2010,11,17,08,18,3.20
2010,11,17,08,19,8.10
2010,11,17,08,20,3.20
2010,11,17,08,21,1.60
2010,11,17,08,22,1.60
2010,11,17,08,23,8.10
2010,11,17,08,24,6.40
2010,11,17,08,25,8.10
2010,11,17,08,26,3.20
2010,11,17,08,27,3.20
2010,11,17,08,28,4.80
2010,11,17,08,29,4.80
2010,11,17,08,30,4.80
2010,11,17,08,31,1.60
2010,11,17,08,32,4.80
2010,11,17,08,33,4.80
2010,11,17,08,34,4.80
2010,11,17,08,35,4.80
2010,11,17,08,36,4.80
2010,11,17,08,37,4.80
2010,11,17,08,38,6.40
2010,11,17,08,39,6.40
2010,11,17,08,40,3.20
2010,11,17,08,41,3.20
2010,11,17,08,42,3.20
2010,11,17,08,43,4.80
2010,11,17,08,44,9.60
2010,11,17,08,45,4.80
2010,11,17,08,46,9.60
2010,11,17,08,47,6.40
2010,11,17,08,48,9.60
2010,11,17,08,49,4.80
2010,11,17,08,50,11.30
2010,11,17,08,51,25.70
2010,11,17,08,52,27.40
2010,11,17,08,53,20.90
2010,11,17,08,54,19.30
2010,11,17,08,55,27.40
2010,11,17,08,56,16.10
2010,11,17,08,57,20.90
2010,11,17,08,58,22.50
2010,11,17,08,59,24.20
2010,11,17,09,00,32.20
2010,11,17,09,01,33.80
2010,11,17,09,02,25.70
2010,11,17,09,03,35.40
2010,11,17,09,04,25.70
2010,11,17,09,05,32.20
2010,11,17,09,06,48.30
2010,11,17,09,07,45.10
2010,11,17,09,08,35.40
2010,11,17,09,09,37.00
2010,11,17,09,10,27.40
2010,11,17,09,11,30.60
2010,11,17,09,12,32.20
2010,11,17,09,13,22.50
2010,11,17,09,14,27.40
2010,11,17,09,15,24.20
2010,11,17,09,16,27.40
2010,11,17,09,17,25.70
2010,11,17,09,18,20.90
2010,11,17,09,19,14.50
2010,11,17,09,20,20.90
2010,11,17,09,21,24.20
2010,11,17,09,22,16.10
2010,11,17,09,23,22.50
2010,11,17,09,24,20.90
2010,11,17,09,25,22.50
2010,11,17,09,26,25.70
2010,11,17,09,27,30.60
2010,11,17,09,28,17.70
2010,11,17,09,29,27.40
2010,11,17,09,30,29.00
2010,11,17,09,31,27.40
2010,11,17,09,32,27.40
2010,11,17,09,33,17.70
2010,11,17,09,34,20.90
2010,11,17,09,35,19.30
2010,11,17,09,36,22.50
2010,11,17,09,37,20.90
2010,11,17,09,38,20.90
2010,11,17,09,39,11.30
2010,11,17,09,40,14.50
2010,11,17,09,41,24.20
2010,11,17,09,42,24.20
2010,11,17,09,43,29.00
2010,11,17,09,44,24.20
2010,11,17,09,45,17.70
2010,11,17,09,46,19.30
2010,11,17,09,47,19.30
2010,11,17,09,48,14.50
2010,11,17,09,49,11.30
2010,11,17,09,50,14.50
2010,11,17,09,51,17.70
2010,11,17,09,52,11.30
2010,11,17,09,53,17.70
2010,11,17,09,54,14.50
2010,11,17,09,55,20.90
2010,11,17,09,56,11.30
2010,11,17,09,57,6.40
2010,11,17,09,58,11.30
2010,11,17,09,59,11.30
2010,11,17,10,00,9.60
2010,11,17,10,01,6.40
2010,11,17,10,02,16.10
2010,11,17,10,03,19.30
2010,11,17,10,04,17.70
2010,11,17,10,05,16.10
2010,11,17,10,06,22.50
2010,11,17,10,07,11.30
2010,11,17,10,08,9.60
2010,11,17,10,09,16.10
2010,11,17,10,10,9.60
2010,11,17,10,11,19.30
2010,11,17,10,12,11.30
2010,11,17,10,13,14.50
2010,11,17,10,14,11.30
2010,11,17,10,15,6.40
2010,11,17,10,16,11.30
2010,11,17,10,17,19.30
2010,11,17,10,18,19.30
2010,11,17,10,19,11.30
2010,11,17,10,20,6.40
2010,11,17,10,21,8.10
2010,11,17,10,22,9.60
2010,11,17,10,23,11.30
2010,11,17,10,24,4.80
2010,11,17,10,25,4.80
2010,11,17,10,26,3.20
2010,11,17,10,27,6.40
2010,11,17,10,28,9.60
2010,11,17,10,29,8.10
2010,11,17,10,30,6.40
2010,11,17,10,31,6.40
2010,11,17,10,32,1.60
2010,11,17,10,33,3.20
2010,11,17,10,34,9.60
2010,11,17,10,35,6.40
2010,11,17,10,36,9.60
2010,11,17,10,37,9.60
2010,11,17,10,38,8.10
2010,11,17,10,39,8.10
2010,11,17,10,40,8.10
2010,11,17,10,41,11.30
2010,11,17,10,42,3.20
2010,11,17,10,43,6.40
2010,11,17,10,44,6.40
2010,11,17,10,45,14.50
2010,11,17,10,46,9.60
2010,11,17,10,47,9.60
2010,11,17,10,48,8.10
2010,11,17,10,49,8.10
2010,11,17,10,50,8.10
2010,11,17,10,51,4.80
2010,11,17,10,52,9.60
2010,11,17,10,53,8.10
2010,11,17,10,54,11.30
2010,11,17,10,55,8.10
2010,11,17,10,56,12.90
2010,11,17,10,57,6.40
2010,11,17,10,58,6.40
2010,11,17,10,59,9.60
2010,11,17,11,00,9.60
2010,11,17,11,01,11.30
2010,11,17,11,02,9.60
2010,11,17,11,03,8.10
2010,11,17,11,04,16.10
2010,11,17,11,05,11.30
2010,11,17,11,06,9.60
2010,11,17,11,07,22.50
2010,11,17,11,08,25.70
2010,11,17,11,09,14.50
2010,11,17,11,10,14.50
2010,11,17,11,11,16.10
2010,11,17,11,12,16.10
2010,11,17,11,13,16.10
2010,11,17,11,14,12.90
2010,11,17,11,15,9.60
2010,11,17,11,16,11.30
2010,11,17,11,17,14.50
2010,11,17,11,18,14.50
2010,11,17,11,19,8.10
2010,11,17,11,20,16.10
2010,11,17,11,21,11.30
2010,11,17,11,22,20.90
2010,11,17,11,23,24.20
2010,11,17,11,24,17.70
2010,11,17,11,25,19.30
2010,11,17,11,26,17.70
2010,11,17,11,27,24.20
2010,11,17,11,28,9.60
2010,11,17,11,29,17.70
2010,11,17,11,30,16.10
2010,11,17,11,31,19.30
2010,11,17,11,32,11.30
2010,11,17,11,33,11.30
2010,11,17,11,34,19.30
2010,11,17,11,35,25.70
2010,11,17,11,36,9.60
2010,11,17,11,37,17.70
2010,11,17,11,38,3.20
2010,11,17,11,39,4.80
2010,11,17,11,40,4.80
2010,11,17,11,41,16.10
2010,11,17,11,42,16.10
2010,11,17,11,43,12.90
2010,11,17,11,44,6.40
2010,11,17,11,45,17.70
2010,11,17,11,46,16.10
2010,11,17,11,47,6.40
2010,11,17,11,48,9.60
2010,11,17,11,49,19.30
2010,11,17,11,50,16.10
2010,11,17,11,51,25.70
2010,11,17,11,52,16.10
2010,11,17,11,53,20.90
2010,11,17,11,54,11.30
2010,11,17,11,55,24.20
2010,11,17,11,56,22.50
2010,11,17,11,57,20.90
2010,11,17,11,58,8.10
2010,11,17,11,59,9.60
2010,11,17,12,00,17.70
2010,11,17,12,01,17.70
2010,11,17,12,02,14.50
2010,11,17,12,03,11.30
2010,11,17,12,04,20.90
2010,11,17,12,05,4.80
2010,11,17,12,06,12.90
2010,11,17,12,07,25.70
2010,11,17,12,08,11.30
2010,11,17,12,09,22.50
2010,11,17,12,10,17.70
2010,11,17,12,11,17.70
2010,11,17,12,12,17.70
2010,11,17,12,13,12.90
2010,11,17,12,14,16.10
2010,11,17,12,15,22.50
2010,11,17,12,16,11.30
2010,11,17,12,17,9.60
2010,11,17,12,18,11.30
2010,11,17,12,19,17.70
2010,11,17,12,20,11.30
2010,11,17,12,21,14.50
2010,11,17,12,22,16.10
2010,11,17,12,23,12.90
2010,11,17,12,24,11.30
2010,11,17,12,25,9.60
2010,11,17,12,26,9.60
2010,11,17,12,27,8.10
2010,11,17,12,28,8.10
2010,11,17,12,29,17.70
2010,11,17,12,30,19.30
2010,11,17,12,31,8.10
2010,11,17,12,32,16.10
2010,11,17,12,33,9.60
2010,11,17,12,34,19.30
2010,11,17,12,35,8.10
2010,11,17,12,36,9.60
2010,11,17,12,37,6.40
2010,11,17,12,38,4.80
2010,11,17,12,39,6.40
2010,11,17,12,40,9.60
2010,11,17,12,41,9.60
2010,11,17,12,42,3.20
2010,11,17,12,43,17.70
2010,11,17,12,44,14.50
2010,11,17,12,45,3.20
2010,11,17,12,46,8.10
2010,11,17,12,47,8.10
2010,11,17,12,48,6.40
2010,11,17,12,49,19.30
2010,11,17,12,50,16.10
2010,11,17,12,51,6.40
2010,11,17,12,52,6.40
2010,11,17,12,53,6.40
2010,11,17,12,54,6.40
2010,11,17,12,55,9.60
2010,11,17,12,56,11.30
2010,11,17,12,57,16.10
2010,11,17,12,58,14.50
2010,11,17,12,59,14.50
2010,11,17,13,00,6.40
2010,11,17,13,01,8.10
2010,11,17,13,02,16.10
2010,11,17,13,03,16.10
2010,11,17,13,04,29.00
2010,11,17,13,05,25.70
2010,11,17,13,06,19.30
2010,11,17,13,07,12.90
2010,11,17,13,08,11.30
2010,11,17,13,09,9.60
2010,11,17,13,10,16.10
2010,11,17,13,11,17.70
2010,11,17,13,12,6.40
2010,11,17,13,13,12.90
2010,11,17,13,14,6.40
2010,11,17,13,15,8.10
2010,11,17,13,16,14.50
2010,11,17,13,17,8.10
2010,11,17,13,18,22.50
2010,11,17,13,19,25.70
2010,11,17,13,20,17.70
2010,11,17,13,21,12.90
2010,11,17,13,22,16.10
2010,11,17,13,23,14.50
2010,11,17,13,24,16.10
2010,11,17,13,25,9.60
2010,11,17,13,26,9.60
2010,11,17,13,27,14.50
2010,11,17,13,28,12.90
2010,11,17,13,29,20.90
2010,11,17,13,30,19.30
2010,11,17,13,31,16.10
2010,11,17,13,32,19.30
2010,11,17,13,33,17.70
2010,11,17,13,34,17.70
2010,11,17,13,35,16.10
2010,11,17,13,36,20.90
2010,11,17,13,37,22.50
2010,11,17,13,38,11.30
2010,11,17,13,39,6.40
2010,11,17,13,40,8.10
2010,11,17,13,41,8.10
2010,11,17,13,42,6.40
2010,11,17,13,43,4.80
2010,11,17,13,44,6.40
2010,11,17,13,45,9.60
2010,11,17,13,46,11.30
2010,11,17,13,47,8.10
2010,11,17,13,48,8.10
2010,11,17,13,49,11.30
2010,11,17,13,50,17.70
2010,11,17,13,51,16.10
2010,11,17,13,52,16.10
2010,11,17,13,53,14.50
2010,11,17,13,54,14.50
2010,11,17,13,55,19.30
2010,11,17,13,56,14.50
2010,11,17,13,57,19.30
2010,11,17,13,58,22.50
2010,11,17,13,59,17.70
2010,11,17,14,00,11.30
2010,11,17,14,01,20.90
2010,11,17,14,02,30.60
2010,11,17,14,03,19.30
2010,11,17,14,04,19.30
2010,11,17,14,05,14.50
2010,11,17,14,06,16.10
2010,11,17,14,07,19.30
2010,11,17,14,08,14.50
2010,11,17,14,09,17.70
2010,11,17,14,10,11.30
2010,11,17,14,11,30.60
2010,11,17,14,12,27.40
2010,11,17,14,13,16.10
2010,11,17,14,14,17.70
2010,11,17,14,15,25.70
2010,11,17,14,16,24.20
2010,11,17,14,17,30.60
2010,11,17,14,18,24.20
2010,11,17,14,19,32.20
2010,11,17,14,20,24.20
2010,11,17,14,21,29.00
2010,11,17,14,22,29.00
2010,11,17,14,23,19.30
2010,11,17,14,24,19.30
2010,11,17,14,25,20.90
2010,11,17,14,26,20.90
2010,11,17,14,27,16.10
2010,11,17,14,28,22.50
2010,11,17,14,29,20.90
2010,11,17,14,30,17.70
2010,11,17,14,31,8.10
2010,11,17,14,32,11.30
2010,11,17,14,33,16.10
2010,11,17,14,34,9.60
2010,11,17,14,35,11.30
2010,11,17,14,36,6.40
2010,11,17,14,37,9.60
2010,11,17,14,38,4.80
2010,11,17,14,39,14.50
2010,11,17,14,40,11.30
2010,11,17,14,41,14.50
2010,11,17,14,42,16.10
2010,11,17,14,43,6.40
2010,11,17,14,44,11.30
2010,11,17,14,45,9.60
2010,11,17,14,46,6.40
2010,11,17,14,47,11.30
2010,11,17,14,48,8.10
2010,11,17,14,49,6.40
2010,11,17,14,50,11.30
2010,11,17,14,51,14.50
2010,11,17,14,52,11.30
2010,11,17,14,53,12.90
2010,11,17,14,54,8.10
2010,11,17,14,55,9.60
2010,11,17,14,56,8.10
2010,11,17,14,57,8.10
2010,11,17,14,58,9.60
2010,11,17,14,59,8.10
2010,11,17,15,00,4.80
2010,11,17,15,01,8.10
2010,11,17,15,02,8.10
2010,11,17,15,03,11.30
2010,11,17,15,04,8.10
2010,11,17,15,05,8.10
2010,11,17,15,06,8.10
2010,11,17,15,07,6.40
2010,11,17,15,08,8.10
2010,11,17,15,09,6.40
2010,11,17,15,10,6.40
2010,11,17,15,11,6.40
2010,11,17,15,12,4.80
2010,11,17,15,13,6.40
2010,11,17,15,15,8.10
2010,11,17,15,16,9.60
2010,11,17,15,17,3.20
2010,11,17,15,18,4.80
2010,11,17,15,19,4.80
2010,11,17,15,20,3.20
2010,11,17,15,21,8.10
2010,11,17,15,22,4.80
2010,11,17,15,23,6.40
2010,11,17,15,24,3.20
2010,11,17,15,25,4.80
2010,11,17,15,26,9.60
2010,11,17,15,27,9.60
2010,11,17,15,28,8.10
2010,11,17,15,29,14.50
2010,11,17,15,30,9.60
2010,11,17,15,31,3.20
2010,11,17,15,32,8.10
2010,11,17,15,33,4.80
2010,11,17,15,34,4.80
2010,11,17,15,35,4.80
2010,11,17,15,36,6.40
2010,11,17,15,37,6.40
2010,11,17,15,38,6.40
2010,11,17,15,39,6.40
2010,11,17,15,40,4.80
2010,11,17,15,41,11.30
2010,11,17,15,42,6.40
2010,11,17,15,43,11.30
2010,11,17,15,44,8.10
2010,11,17,15,45,6.40
2010,11,17,15,46,8.10
2010,11,17,15,47,8.10
2010,11,17,15,48,8.10
2010,11,17,15,49,3.20
2010,11,17,15,50,11.30
2010,11,17,15,51,16.10
2010,11,17,15,52,6.40
2010,11,17,15,53,4.80
2010,11,17,15,54,9.60
2010,11,17,15,55,8.10
2010,11,17,15,56,11.30
2010,11,17,15,57,11.30
2010,11,17,15,58,4.80
2010,11,17,15,59,3.20
2010,11,17,16,00,6.40
2010,11,17,16,01,3.20
2010,11,17,16,02,3.20
2010,11,17,16,03,8.10
2010,11,17,16,04,6.40
2010,11,17,16,05,8.10
2010,11,17,16,06,9.60
2010,11,17,16,07,6.40
2010,11,17,16,08,4.80
2010,11,17,16,09,11.30
2010,11,17,16,10,11.30
2010,11,17,16,11,11.30
2010,11,17,16,12,20.90
2010,11,17,16,13,24.20
2010,11,17,16,14,32.20
2010,11,17,16,15,33.80
2010,11,17,16,16,27.40
2010,11,17,16,17,30.60
2010,11,17,16,18,24.20
2010,11,17,16,19,19.30
2010,11,17,16,20,9.60
2010,11,17,16,21,27.40
2010,11,17,16,22,20.90
2010,11,17,16,23,24.20
2010,11,17,16,24,16.10
2010,11,17,16,25,9.60
2010,11,17,16,26,8.10
2010,11,17,16,27,8.10
2010,11,17,16,28,6.40
2010,11,17,16,29,12.90
2010,11,17,16,30,9.60
2010,11,17,16,31,4.80
2010,11,17,16,32,3.20
2010,11,17,16,33,3.20
2010,11,17,16,34,9.60
2010,11,17,16,35,9.60
2010,11,17,16,36,4.80
2010,11,17,16,37,8.10
2010,11,17,16,38,11.30
2010,11,17,16,39,11.30
2010,11,17,16,40,8.10
2010,11,17,16,41,19.30
2010,11,17,16,42,17.70
2010,11,17,16,43,20.90
2010,11,17,16,44,20.90
2010,11,17,16,45,19.30
2010,11,17,16,46,19.30
2010,11,17,16,47,24.20
2010,11,17,16,48,14.50
2010,11,17,16,49,17.70
2010,11,17,16,50,17.70
2010,11,17,16,51,20.90
2010,11,17,16,52,14.50
2010,11,17,16,53,14.50
2010,11,17,16,54,16.10
2010,11,17,16,55,14.50
2010,11,17,16,56,14.50
2010,11,17,16,57,14.50
2010,11,17,16,58,11.30
2010,11,17,16,59,9.60
2010,11,17,17,00,14.50
2010,11,17,17,01,14.50
2010,11,17,17,02,16.10
2010,11,17,17,03,14.50
2010,11,17,17,04,20.90
2010,11,17,17,05,22.50
2010,11,17,17,06,11.30
2010,11,17,17,07,14.50
2010,11,17,17,08,17.70
2010,11,17,17,09,22.50
2010,11,17,17,10,19.30
2010,11,17,17,11,17.70
2010,11,17,17,12,16.10
2010,11,17,17,13,17.70
2010,11,17,17,14,12.90
2010,11,17,17,15,17.70
2010,11,17,17,16,12.90
2010,11,17,17,17,8.10
2010,11,17,17,18,22.50
2010,11,17,17,19,16.10
2010,11,17,17,20,11.30
2010,11,17,17,21,9.60
2010,11,17,17,22,14.50
2010,11,17,17,23,9.60
2010,11,17,17,24,4.80
2010,11,17,17,25,17.70
2010,11,17,17,26,12.90
2010,11,17,17,27,16.10
2010,11,17,17,28,17.70
2010,11,17,17,29,9.60
2010,11,17,17,30,16.10
2010,11,17,17,31,9.60
2010,11,17,17,32,16.10
2010,11,17,17,33,16.10
2010,11,17,17,34,11.30
2010,11,17,17,35,11.30
2010,11,17,17,36,19.30
2010,11,17,17,37,14.50
2010,11,17,17,38,17.70
2010,11,17,17,39,17.70
2010,11,17,17,40,14.50
2010,11,17,17,41,11.30
2010,11,17,17,42,11.30
2010,11,17,17,43,12.90
2010,11,17,17,44,11.30
2010,11,17,17,45,14.50
2010,11,17,17,46,12.90
2010,11,17,17,47,17.70
2010,11,17,17,48,14.50
2010,11,17,17,49,11.30
2010,11,17,17,50,16.10
2010,11,17,17,51,17.70
2010,11,17,17,52,17.70
2010,11,17,17,53,14.50
2010,11,17,17,54,20.90
2010,11,17,17,55,14.50
2010,11,17,17,56,16.10
2010,11,17,17,57,16.10
2010,11,17,17,58,16.10
2010,11,17,17,59,22.50
2010,11,17,18,00,17.70
2010,11,17,18,01,17.70
2010,11,17,18,02,17.70
2010,11,17,18,03,19.30
2010,11,17,18,04,17.70
2010,11,17,18,05,20.90
2010,11,17,18,06,19.30
2010,11,17,18,07,11.30
2010,11,17,18,08,9.60
2010,11,17,18,09,20.90
2010,11,17,18,10,14.50
2010,11,17,18,11,11.30
2010,11,17,18,12,19.30
2010,11,17,18,13,9.60
2010,11,17,18,14,16.10
2010,11,17,18,15,11.30
2010,11,17,18,16,14.50
2010,11,17,18,17,16.10
2010,11,17,18,18,16.10
2010,11,17,18,19,14.50
2010,11,17,18,20,19.30
2010,11,17,18,21,14.50
2010,11,17,18,22,11.30
2010,11,17,18,23,11.30
2010,11,17,18,24,11.30
2010,11,17,18,25,14.50
2010,11,17,18,26,11.30
2010,11,17,18,27,11.30
2010,11,17,18,28,12.90
2010,11,17,18,29,16.10
2010,11,17,18,30,16.10
2010,11,17,18,31,9.60
2010,11,17,18,32,14.50
2010,11,17,18,33,14.50
2010,11,17,18,34,14.50
2010,11,17,18,35,9.60
2010,11,17,18,36,12.90
2010,11,17,18,37,11.30
2010,11,17,18,38,16.10
2010,11,17,18,39,14.50
2010,11,17,18,40,17.70
2010,11,17,18,41,9.60
2010,11,17,18,42,6.40
2010,11,17,18,43,14.50
2010,11,17,18,44,11.30
2010,11,17,18,45,14.50
2010,11,17,18,46,11.30
2010,11,17,18,47,12.90
2010,11,17,18,48,14.50
2010,11,17,18,49,9.60
2010,11,17,18,50,14.50
2010,11,17,18,51,16.10
2010,11,17,18,52,20.90
2010,11,17,18,53,11.30
2010,11,17,18,54,16.10
2010,11,17,18,55,14.50
2010,11,17,18,56,19.30
2010,11,17,18,57,20.90
2010,11,17,18,58,16.10
2010,11,17,18,59,12.90
2010,11,17,19,00,14.50
2010,11,17,19,01,16.10
2010,11,17,19,02,16.10
2010,11,17,19,03,11.30
2010,11,17,19,04,8.10
2010,11,17,19,05,8.10
2010,11,17,19,06,14.50
2010,11,17,19,07,11.30
2010,11,17,19,08,25.70
2010,11,17,19,09,19.30
2010,11,17,19,10,11.30
2010,11,17,19,11,9.60
2010,11,17,19,12,9.60
2010,11,17,19,13,27.40
2010,11,17,19,14,14.50
2010,11,17,19,15,16.10
2010,11,17,19,16,14.50
2010,11,17,19,17,16.10
2010,11,17,19,18,14.50
2010,11,17,19,19,19.30
2010,11,17,19,20,9.60
2010,11,17,19,21,12.90
2010,11,17,19,22,19.30
2010,11,17,19,23,16.10
2010,11,17,19,24,19.30
2010,11,17,19,25,16.10
2010,11,17,19,26,16.10
2010,11,17,19,27,16.10
2010,11,17,19,28,11.30
2010,11,17,19,29,16.10
2010,11,17,19,30,16.10
2010,11,17,19,31,25.70
2010,11,17,19,32,9.60
2010,11,17,19,33,17.70
2010,11,17,19,34,20.90
2010,11,17,19,35,11.30
2010,11,17,19,36,11.30
2010,11,17,19,37,16.10
2010,11,17,19,38,12.90
2010,11,17,19,39,11.30
2010,11,17,19,40,9.60
2010,11,17,19,41,12.90
2010,11,17,19,42,11.30
2010,11,17,19,43,11.30
2010,11,17,19,44,9.60
2010,11,17,19,45,9.60
2010,11,17,19,46,4.80
2010,11,17,19,47,9.60
2010,11,17,19,48,9.60
2010,11,17,19,49,8.10
2010,11,17,19,50,8.10
2010,11,17,19,51,9.60
2010,11,17,19,52,14.50
2010,11,17,19,53,14.50
2010,11,17,19,54,6.40
2010,11,17,19,55,11.30
2010,11,17,19,56,4.80
2010,11,17,19,57,8.10
2010,11,17,19,58,6.40
2010,11,17,19,59,6.40
2010,11,17,20,00,4.80
2010,11,17,20,01,3.20
2010,11,17,20,02,4.80
2010,11,17,20,03,3.20
2010,11,17,20,04,4.80
2010,11,17,20,05,6.40
2010,11,17,20,06,4.80
2010,11,17,20,07,4.80
2010,11,17,20,08,8.10
2010,11,17,20,09,8.10
2010,11,17,20,10,9.60
2010,11,17,20,11,9.60
2010,11,17,20,12,6.40
2010,11,17,20,13,9.60
2010,11,17,20,14,8.10
2010,11,17,20,15,6.40
2010,11,17,20,16,8.10
2010,11,17,20,17,6.40
2010,11,17,20,18,4.80
2010,11,17,20,19,8.10
2010,11,17,20,20,6.40
2010,11,17,20,21,9.60
2010,11,17,20,22,6.40
2010,11,17,20,23,6.40
2010,11,17,20,24,6.40
2010,11,17,20,25,6.40
2010,11,17,20,26,1.60
2010,11,17,20,27,3.20
2010,11,17,20,28,1.60
2010,11,17,20,29,6.40